Winona, MN

8:58 AM CST on January 21, 2018 (GMT -0600)
Winona Municipal-Conrad

Weather History for KONA - January, 2014

Change the Weather History Date:

Thursday, January 30, 2014

  Actual Average Record
Temperature  
Mean Temperature 19 °F -  
Max Temperature 33 °F 29 °F 48 °F (2016)
Min Temperature 3 °F 9 °F -13 °F (2004)
Degree Days  
Heating Degree Days 46    
Moisture  
Dew Point 16 °F    
Average Humidity 70    
Maximum Humidity 93    
Minimum Humidity 48    
Precipitation  
Precipitation 0.11 in - - ()
Sea Level Pressure  
Sea Level Pressure 29.67 in    
Wind  
Wind Speed 8 mph (West)    
Max Wind Speed 24 mph    
Max Gust Speed 32 mph    
Visibility 8 miles    
Events Snow    
Averages and records for this station are not official NWS values.
T = Trace of Precipitation, MM = Missing Value Source: NWS Daily Summary

Daily Weather History Graph

Daily Weather History Graph

Search for Another Location

Airport or City:

Trip Planner

Search our weather history database for the weather conditions in past years. The results will help you decide how hot, cold, wet, or windy it might be!

Date:

Astronomy

Jan. 30, 2014 Rise Set
Actual Time 7:26 AM CST 5:14 PM CST
Civil Twilight 6:55 AM CST 5:45 PM CST
Nautical Twilight 6:20 AM CST 6:19 PM CST
Astronomical Twilight 5:46 AM CST 6:53 PM CST
Moon 6:51 AM CST (1/30) 5:28 PM CST (1/30)
Length of Visible Light 10h 49m
Length of Day
9h 47m
Waning Crescent, 0% of the Moon is Illuminated
Jan 30
Waning Crescent
Jan 30
New
Feb 6
First Quarter
Feb 14
Full
Feb 22
Last Quarter

Hourly Weather History & Observations

Time (CST) Temp. Windchill Dew Point Humidity Pressure Visibility Wind Dir Wind Speed Gust Speed Precip Events Conditions
12:18 AM 32.0 °F 22.1 °F 15.8 °F 51% 29.63 in 10.0 mi SSW 13.8 mph 20.7 mph N/A   Mostly Cloudy
12:38 AM 32.0 °F 27.5 °F 15.8 °F 51% 29.62 in 10.0 mi SSW 4.6 mph 18.4 mph N/A   Mostly Cloudy
12:58 AM 32.0 °F 23.0 °F 15.8 °F 51% 29.61 in 10.0 mi SW 11.5 mph 23.0 mph N/A   Scattered Clouds
1:18 AM 32.0 °F 23.6 °F 15.8 °F 51% 29.61 in 10.0 mi SSW 10.4 mph 23.0 mph N/A   Mostly Cloudy
1:38 AM 32.0 °F 23.6 °F 15.8 °F 51% 29.60 in 10.0 mi SW 10.4 mph - N/A   Mostly Cloudy
1:58 AM 32.0 °F 24.8 °F 15.8 °F 51% 29.60 in 10.0 mi SSW 8.1 mph - N/A   Mostly Cloudy
2:18 AM 32.0 °F 24.8 °F 14.0 °F 48% 29.59 in 10.0 mi SSW 8.1 mph - N/A   Mostly Cloudy
2:38 AM 32.0 °F - 14.0 °F 48% 29.59 in 10.0 mi Calm Calm - N/A   Scattered Clouds
2:58 AM 33.8 °F 27.7 °F 17.6 °F 52% 29.61 in 10.0 mi West 6.9 mph - N/A   Mostly Cloudy
3:18 AM 32.0 °F 28.7 °F 14.0 °F 48% 29.59 in 10.0 mi SW 3.5 mph - N/A   Mostly Cloudy
3:38 AM 32.0 °F - 14.0 °F 48% 29.57 in 10.0 mi Calm Calm - N/A   Scattered Clouds
3:58 AM 32.0 °F 25.6 °F 17.6 °F 55% 29.56 in 10.0 mi SSE 6.9 mph - N/A   Scattered Clouds
4:18 AM 32.0 °F - 15.8 °F 51% 29.56 in 10.0 mi Calm Calm - N/A   Scattered Clouds
4:38 AM 32.0 °F 28.7 °F 17.6 °F 55% 29.55 in 10.0 mi South 3.5 mph - N/A   Overcast
4:58 AM 32.0 °F 28.7 °F 17.6 °F 55% 29.54 in 10.0 mi South 3.5 mph - N/A   Overcast
5:18 AM 32.0 °F 26.4 °F 17.6 °F 55% 29.53 in 10.0 mi SSE 5.8 mph - N/A   Mostly Cloudy
5:38 AM 32.0 °F 28.7 °F 17.6 °F 55% 29.53 in 10.0 mi SE 3.5 mph - N/A   Scattered Clouds
5:58 AM 32.0 °F 26.4 °F 19.4 °F 60% 29.52 in 10.0 mi SE 5.8 mph - N/A   Mostly Cloudy
6:18 AM 32.0 °F 24.8 °F 17.6 °F 55% 29.51 in 10.0 mi SSE 8.1 mph - N/A   Mostly Cloudy
6:38 AM 32.0 °F 25.6 °F 17.6 °F 55% 29.49 in 10.0 mi SSE 6.9 mph - N/A   Scattered Clouds
6:58 AM 32.0 °F 24.8 °F 17.6 °F 55% 29.48 in 10.0 mi SSE 8.1 mph - N/A   Mostly Cloudy
7:18 AM 32.0 °F 24.8 °F 17.6 °F 55% 29.47 in 10.0 mi SSE 8.1 mph - N/A   Overcast
7:38 AM 30.2 °F 23.4 °F 23.0 °F 75% 29.53 in 2.0 mi West 6.9 mph 18.4 mph N/A Snow Light Snow
7:58 AM 30.2 °F 26.7 °F 26.6 °F 86% 29.54 in 2.0 mi SW 3.5 mph - N/A Snow Light Snow
8:18 AM 30.2 °F - 28.4 °F 93% 29.53 in 0.5 mi Calm Calm - N/A Snow Snow
8:38 AM 30.2 °F 26.7 °F 28.4 °F 93% 29.52 in 0.5 mi SE 3.5 mph - N/A Snow Snow
8:57 AM 30.2 °F 25.4 °F 28.4 °F 93% 29.52 in 0.8 mi ESE 4.6 mph - N/A Snow Light Snow
9:18 AM 30.2 °F 23.4 °F 28.4 °F 93% 29.51 in 10.0 mi ESE 6.9 mph - 0.01 in   Mostly Cloudy
9:38 AM 30.2 °F 24.3 °F 28.4 °F 93% 29.51 in 7.0 mi SE 5.8 mph - 0.03 in Snow Light Snow
9:57 AM 30.2 °F - 28.4 °F 93% 29.51 in 1.0 mi Calm Calm - N/A Snow Light Snow
10:18 AM 30.2 °F 26.7 °F 28.4 °F 93% 29.51 in 0.8 mi South 3.5 mph - 0.02 in Snow Light Snow
10:38 AM 30.2 °F 26.7 °F 28.4 °F 93% 29.50 in 1.0 mi SSE 3.5 mph - 0.04 in Snow Light Snow
10:57 AM 30.2 °F 26.7 °F 28.4 °F 93% 29.50 in 0.8 mi SE 3.5 mph - N/A Snow Light Snow
11:18 AM 30.2 °F - 28.4 °F 93% 29.49 in 1.0 mi Calm Calm - 0.02 in Snow Light Snow
11:38 AM 30.2 °F 26.7 °F 28.4 °F 93% 29.49 in 1.2 mi SSE 3.5 mph - 0.03 in Snow Light Snow
11:57 AM 30.2 °F - 28.4 °F 93% 29.48 in 1.8 mi Calm Calm - N/A Snow Light Snow
12:18 PM 32.0 °F 26.4 °F 28.4 °F 87% 29.48 in 2.0 mi SW 5.8 mph - 0.01 in Snow Light Snow
12:37 PM 32.0 °F 26.4 °F 28.4 °F 87% 29.49 in 1.5 mi West 5.8 mph - 0.01 in Snow Snow
12:58 PM 32.0 °F 28.7 °F 28.4 °F 87% 29.49 in 5.0 mi WNW 3.5 mph - N/A Snow Light Snow
1:18 PM 32.0 °F 24.8 °F 28.4 °F 87% 29.50 in 5.0 mi WNW 8.1 mph - N/A Snow Light Snow
1:37 PM 30.2 °F 17.4 °F 26.6 °F 86% 29.53 in 10.0 mi NNW 20.7 mph 32.2 mph N/A   Overcast
1:58 PM 28.4 °F 14.7 °F 23.0 °F 80% 29.56 in 10.0 mi NNW 21.9 mph 27.6 mph N/A   Overcast
2:17 PM 24.8 °F 9.3 °F 19.4 °F 80% 29.60 in 10.0 mi NW 24.2 mph 29.9 mph N/A   Overcast
2:38 PM 23.0 °F 8.7 °F 17.6 °F 80% 29.62 in 10.0 mi NW 18.4 mph 25.3 mph N/A   Overcast
2:58 PM 23.0 °F 9.6 °F 15.8 °F 74% 29.64 in 10.0 mi NW 16.1 mph 21.9 mph N/A   Mostly Cloudy
3:17 PM 23.0 °F 11.7 °F 15.8 °F 74% 29.66 in 10.0 mi NW 11.5 mph - N/A   Clear
3:38 PM 23.0 °F 9.2 °F 14.0 °F 68% 29.69 in 10.0 mi NNW 17.3 mph 24.2 mph N/A   Scattered Clouds
3:58 PM 21.2 °F 8.3 °F 14.0 °F 74% 29.71 in 10.0 mi NW 13.8 mph - N/A   Mostly Cloudy
4:17 PM 21.2 °F 8.3 °F 12.2 °F 68% 29.73 in 10.0 mi NW 13.8 mph - N/A   Scattered Clouds
4:38 PM 21.2 °F 7.8 °F 12.2 °F 68% 29.74 in 10.0 mi NW 15.0 mph 24.2 mph N/A   Clear
4:58 PM 19.4 °F 6.6 °F 12.2 °F 74% 29.76 in 10.0 mi NW 12.7 mph - N/A   Clear
5:17 PM 17.6 °F 5.0 °F 10.4 °F 73% 29.78 in 10.0 mi NW 11.5 mph - N/A   Clear
5:38 PM 17.6 °F 6.4 °F 10.4 °F 73% 29.80 in 10.0 mi NW 9.2 mph - N/A   Clear
5:58 PM 17.6 °F 6.4 °F 10.4 °F 73% 29.81 in 10.0 mi NW 9.2 mph - N/A   Clear
6:17 PM 17.6 °F 6.4 °F 8.6 °F 68% 29.82 in 10.0 mi NW 9.2 mph - N/A   Clear
6:38 PM 17.6 °F 9.3 °F 8.6 °F 68% 29.84 in 10.0 mi WNW 5.8 mph - N/A   Clear
6:58 PM 17.6 °F 6.4 °F 8.6 °F 68% 29.84 in 10.0 mi WNW 9.2 mph - N/A   Clear
7:18 PM 17.6 °F 4.3 °F 8.6 °F 68% 29.85 in 10.0 mi WNW 12.7 mph 18.4 mph N/A   Clear
7:38 PM 17.6 °F 3.7 °F 6.8 °F 63% 29.86 in 10.0 mi NW 13.8 mph - N/A   Clear
7:58 PM 15.8 °F 2.1 °F 5.0 °F 62% 29.87 in 10.0 mi NW 12.7 mph 18.4 mph N/A   Clear
8:18 PM 14.0 °F -0.2 °F 5.0 °F 67% 29.89 in 10.0 mi WNW 12.7 mph - N/A   Clear
8:38 PM 14.0 °F -0.2 °F 5.0 °F 67% 29.91 in 10.0 mi WNW 12.7 mph - N/A   Clear
8:58 PM 12.2 °F -1.8 °F 3.2 °F 67% 29.93 in 10.0 mi WNW 11.5 mph 19.6 mph N/A   Clear
9:18 PM 10.4 °F -5.4 °F 3.2 °F 73% 29.94 in 10.0 mi WNW 13.8 mph - N/A   Clear
9:38 PM 10.4 °F -2.4 °F 1.4 °F 67% 29.96 in 10.0 mi WNW 9.2 mph 16.1 mph N/A   Clear
9:58 PM 10.4 °F -2.4 °F 1.4 °F 67% 29.98 in 10.0 mi WNW 9.2 mph - N/A   Clear
10:18 PM 10.4 °F 0.8 °F 1.4 °F 67% 29.99 in 10.0 mi WNW 5.8 mph - N/A   Clear
10:38 PM 8.6 °F -6.3 °F -0.4 °F 67% 30.01 in 10.0 mi WNW 11.5 mph 16.1 mph N/A   Clear
10:58 PM 8.6 °F -7.0 °F -0.4 °F 67% 30.02 in 10.0 mi WNW 12.7 mph 17.3 mph N/A   Clear
11:18 PM 8.6 °F -6.3 °F -0.4 °F 67% 30.03 in 10.0 mi WNW 11.5 mph - N/A   Clear
11:38 PM 5.0 °F -8.1 °F -4.0 °F 66% 30.04 in 10.0 mi WNW 8.1 mph 18.4 mph N/A   Clear
11:58 PM 3.2 °F -12.2 °F -4.0 °F 72% 30.03 in 10.0 mi NW 10.4 mph - N/A   Clear